Flag for Finland Weather past 2 weeks in Helsinki, Finland

Now
59 °F

Broken clouds.


Feels Like: 57 °F
Forecast: 46 / 59 °F
Wind: 9 mph from Northwest

Location: Helsinki Malmi Airport

Current Time: Aug 29, 2014 at 3:24:51 PM

Latest Report: Aug 29, 2014 at 2:50 PM


Visibility: N/A

Pressure: 29.83 "Hg

Humidity: 77%

Dew point: 52 °F

Location of HelsinkiLocation

Historic Weather in Helsinki — Graph

°F

Helsinki temperature yesterday

Maximum temperature yesterday: 63 °F (at 1:50 PM)
Minimum temperature yesterday: 50 °F (at 11:50 PM)
Average temperature yesterday: 57 °F

Past Weeks' High & Low Weather Summary

 TemperatureHumidityPressure
High72 °F (Aug 15, 1:50 PM)100% (Aug 15, 9:50 PM)29.86 "Hg (Aug 15, 9:50 PM)
Low48 °F (Aug 29, 1:50 AM)49% (Aug 16, 6:20 PM)29.30 "Hg (Aug 26, 9:20 AM)
Average58 °F84%29.61 "Hg
* Reported Aug 14 1:20 PM — Aug 29 1:50 PM, Helsinki, Weather by CustomWeather, © 2014

Note: Actual official high and low records may vary slightly from our data, if they occured in-between our weather recording intervals... More about our weather records

Advertising

Helsinki weather history for previous 24 hours

 ConditionsComfort  
Time TempWeatherWind HumidityBarometerVisibility
1:50 PM
Aug 29
59 °FScattered clouds.9 mph77%29.83 "HgN/A
1:20 PM57 °FScattered clouds.8 mph77%29.83 "HgN/A
12:50 PM57 °FScattered clouds.10 mph82%29.83 "HgN/A
12:20 PM54 °FSprinkles. Broken clouds.13 mph94%29.83 "HgN/A
11:50 AM57 °FPartly sunny.9 mph77%29.83 "HgN/A
11:20 AM57 °FPartly sunny.10 mph77%29.83 "HgN/A
10:50 AM55 °FScattered clouds.12 mph82%29.83 "HgN/A
10:20 AM55 °FBroken clouds.12 mph82%29.80 "HgN/A
9:50 AM55 °FBroken clouds.8 mph88%29.80 "HgN/A
9:20 AM54 °FBroken clouds.8 mph94%29.80 "HgN/A
8:50 AM54 °FPartly sunny.8 mph94%29.80 "HgN/A
8:20 AM54 °FPartly sunny.8 mph94%29.80 "HgN/A
7:50 AM52 °FSunny.8 mph100%29.80 "Hg10 mi
7:20 AM52 °FSunny.8 mph100%29.80 "Hg10 mi
6:50 AM52 °FClear.7 mph94%29.80 "Hg10 mi
6:20 AM50 °FPassing clouds.6 mph100%29.80 "HgN/A
5:50 AM50 °FClear.5 mph100%29.80 "Hg10 mi
5:20 AM50 °FClear.5 mph100%29.80 "Hg10 mi
4:50 AM48 °FClear.2 mph100%29.80 "Hg10 mi
4:20 AM48 °FClear.No wind100%29.80 "Hg10 mi
3:50 AM48 °FPassing clouds.1 mph100%29.77 "Hg1 mi
3:20 AM48 °FFog.No wind100%29.77 "Hg2 mi
2:50 AM48 °FFog.No wind100%29.80 "Hg0 mi
2:20 AM50 °FFog.No wind100%29.77 "Hg3 mi
1:50 AM48 °FPassing clouds.No wind100%29.77 "Hg1 mi
1:20 AM50 °FFog.No wind100%29.77 "Hg0 mi
12:50 AM50 °FFog.No wind100%29.77 "Hg1 mi
12:20 AM50 °FFog.No wind100%29.77 "Hg1 mi
11:50 PM
Aug 28
50 °FDense fog.No wind100%29.77 "Hg0 mi
11:20 PM52 °FPassing clouds.No wind94%29.77 "HgN/A
10:50 PM52 °FFog.No wind100%29.77 "Hg1 mi
10:20 PM52 °FLight fog.No wind100%29.77 "Hg0 mi
9:50 PM54 °FLight fog.No wind94%29.77 "Hg0 mi
9:20 PM54 °FSunny.No wind100%29.77 "Hg1 mi
8:50 PM55 °FScattered clouds.No wind100%29.74 "HgN/A
8:20 PM57 °FScattered clouds.No wind94%29.74 "HgN/A
7:50 PM57 °FScattered clouds.No wind94%29.74 "HgN/A
7:20 PM61 °FScattered clouds.2 mph83%29.74 "HgN/A
6:50 PM59 °FScattered clouds.1 mph88%29.71 "HgN/A
6:20 PM59 °FSprinkles. Partly sunny.2 mph88%29.71 "HgN/A
5:50 PM59 °FSprinkles. Partly sunny.5 mph88%29.71 "HgN/A
5:20 PM63 °FScattered clouds.1 mph77%29.71 "HgN/A
4:50 PM59 °FPartly sunny.2 mph94%29.71 "HgN/A
4:20 PM61 °FSprinkles. Partly sunny.1 mph83%29.68 "HgN/A
3:50 PM57 °FSprinkles. Partly sunny.2 mph94%29.68 "HgN/A
3:20 PM63 °FScattered showers. Partly sunny.5 mph73%29.68 "HgN/A
Weather by CustomWeather, © 2014

See weather overviewHow to use our weather pages